[[[{"header":{"parameterUnit":"kt","parameterCategory":2,"dx":1,"dy":1,"la1":30.253999710083008,"la2":30.299108505249023,"lo1":-89.0895004272461,"lo2":-89.04439544677734,"nx":28,"ny":28,"refTime":"2022-09-27T15:00:00:Z","depth":0,"parameterNumber":1,"parameterNumberName":"U-component_of_WINDS"},"data":[-4.1141,-4.1296,-4.1284,-4.1455,-4.1472,-4.1587,-4.1624,-4.167,-4.1704,-4.1839,-4.1914,-4.1917,-4.1945,-4.2032,-4.2113,-4.2112,-4.2149,-4.2212,-4.2201,-4.1928,-4.189,-4.1854,-4.1817,-4.2219,-4.2219,-4.2487,-4.2489,-4.2491,-4.094,-4.0959,-4.1046,-4.1122,-4.1196,-4.1127,-4.1181,-4.1248,-4.1353,-4.1395,-4.1468,-4.1586,-4.1677,-4.1685,-4.177,-4.1842,-4.1816,-4.1867,-4.1864,-4.187,-4.1577,-4.1538,-4.1887,-4.1887,-4.1886,-4.1886,-4.1886,-4.1886,-4.0571,-4.0664,-4.0703,-4.0797,-4.0832,-4.0882,-4.0969,-4.0971,-4.1056,-4.1144,-4.1112,-4.123,-4.1271,-4.1368,-4.1398,-4.1489,-4.1431,-4.1484,-4.1498,-4.1512,-4.1531,-4.1151,-4.1503,-4.1501,-4.15,-4.15,-4.1499,0,-4.0298,-4.0281,-4.0364,-4.0443,-4.0511,-4.0571,-4.0624,-4.0677,-4.0638,-4.071,-4.0812,-4.087,-4.0982,-4.1078,-4.1155,-4.1176,-4.1115,-4.1106,-4.1142,-4.1163,-4.117,-4.1171,-4.0697,-4.1097,-4.1094,-4.1091,-4.1089,-4.1088,-3.9928,-4.0038,-4.0072,-4.0132,-4.0158,-4.0255,-4.031,-4.0267,-4.0328,-4.0387,-4.0471,-4.0566,-4.064,-4.0807,-4.0809,-4.0894,-4.0866,-4.102,-4.0878,-4.0891,-4.0872,-4.0868,-4.0879,-4.1051,-4.1055,-4.1059,-4.1062,0,-3.9721,-3.9701,-3.9867,-3.989,-3.9899,-4.0017,-4.0037,-4.0128,-4.012,-4.0245,-4.0271,-4.026,-4.0362,-4.0339,-4.0451,-4.0436,-4.063,-4.0598,-4.0615,-4.0609,-4.0748,-4.0737,-4.1195,-4.1254,-4.0833,-4.0837,-4.084,0,-3.94,-3.9546,-3.9507,-3.9605,-3.9765,-3.9718,-3.9878,-3.9887,-3.9921,-4.0019,-3.9944,-4.0038,-3.9993,-4.0083,-4.0061,-4.0215,-4.0235,-4.0234,-4.0228,-4.0244,-4.0245,-4.028,-4.0262,-4.0204,-4.0202,-4.02,-4.0198,0,-3.9082,-3.9231,-3.9389,-3.942,-3.9461,-3.9536,-3.9557,-3.9594,-3.965,-3.9717,-3.9752,-3.9834,-3.988,-3.9944,-3.9916,-3.9821,-4.0102,-3.9966,-4.0102,-4.0103,-4.017,-4.0167,-4.0574,-4.0195,-4.0194,-4.0194,-4.0193,0,-3.8821,-3.8889,-3.9121,-3.9153,-3.9194,-3.9298,-3.9375,-3.9459,-3.9505,-3.9498,-3.955,-3.9499,-3.963,-3.9496,-3.9676,-3.9561,-3.961,-3.962,-3.9629,-3.9644,-3.9497,-3.9735,-4.0122,-4.0163,-3.9651,-3.9647,-3.9643,0,-3.8464,-3.8692,-3.8654,-3.8875,-3.8977,-3.8887,-3.9001,-3.9044,-3.9044,-3.9131,-3.913,-3.923,-3.9126,-3.9154,-3.9245,-3.9251,-3.94,-3.9229,-3.9359,-3.9364,-3.9353,-3.9707,-3.9773,-4.0038,-3.9585,-3.9591,-3.9595,0,-3.8186,-3.8234,-3.8276,-3.831,-3.836,-3.8445,-3.8576,-3.8665,-3.8725,-3.8781,-3.8891,-3.9029,-3.8957,-3.9005,-3.8973,-3.907,-3.9297,-3.898,-3.898,-3.9041,-3.9552,-3.9614,-3.9659,-3.9254,-3.9261,-3.9267,-3.9549,0,-3.7801,-3.7912,-3.8024,-3.8102,-3.8164,-3.8301,-3.8277,-3.8345,-3.8307,-3.8304,-3.8465,-3.8495,-3.8588,-3.8631,-3.8596,-3.8824,-3.8783,-3.8705,-3.8578,-3.8809,-3.8902,-3.894,-3.8441,-3.8437,-3.8434,-3.8431,0,0,-3.7467,-3.7626,-3.7581,-3.7707,-3.7757,-3.7663,-3.7812,-3.7849,-3.7929,-3.7965,-3.7892,-3.8095,-3.8124,-3.8322,-3.8392,-3.8428,-3.8468,-3.8389,-3.8698,-3.8728,-3.8756,-3.8856,-3.8895,-3.8426,-3.8424,-3.8423,-3.8422,0,-3.7323,-3.7352,-3.7499,-3.7535,-3.7588,-3.7578,-3.7613,-3.765,-3.7656,-3.7812,-3.7734,-3.7827,-3.7991,-3.8032,-3.8075,-3.8362,-3.8301,-3.8391,-3.8555,-3.8666,-3.87,-3.873,-3.8835,-3.8873,-3.8414,-3.8415,-3.8415,0,-3.7047,-3.7073,-3.7141,-3.7249,-3.7284,-3.7392,-3.725,-3.737,-3.745,-3.7344,-3.7501,-3.7516,-3.7569,-3.7759,-3.7843,-3.778,-3.815,-3.8029,-3.8049,-3.8059,-3.8166,-3.8207,-3.8244,-3.7762,-3.7759,-3.7757,0,0,-3.6926,-3.7029,-3.7045,-3.7217,-3.7244,-3.7232,-3.7287,-3.7255,-3.7305,-3.7325,-3.7344,-3.7395,-3.7489,-3.7552,-3.764,-3.785,-3.7859,-3.7949,-3.798,-3.8005,-3.8029,-3.8143,-3.8183,-3.7749,-3.7749,-3.7749,0,0,-3.6869,-3.6894,-3.6847,-3.7044,-3.7093,-3.7121,-3.7228,-3.7171,-3.7248,-3.723,-3.7184,-3.7196,-3.7372,-3.7391,-3.7283,-3.7595,-3.7468,-3.7494,-3.7577,-3.7616,-3.7646,-3.764,-3.7146,0,0,0,0,0,-3.6711,-3.689,-3.6848,-3.6877,-3.7015,-3.7144,-3.7162,-3.7128,-3.7038,-3.7123,-3.7129,-3.7059,-3.7323,-3.7226,-3.7257,-3.7379,-3.7643,-3.7662,-3.768,-3.7837,-3.7877,-3.7911,0,0,0,0,0,0,-3.6722,-3.6758,-3.6843,-3.6879,-3.691,-3.7137,-3.6979,-3.6975,-3.7028,-3.7013,-3.706,-3.706,-3.7034,-3.7208,-3.7236,-3.7353,-3.7136,-3.765,-3.7666,-3.7681,-3.7851,-3.7884,-3.7912,0,0,0,0,0,-3.6731,-3.676,-3.699,-3.6876,-3.6903,-3.69,-3.6972,-3.6967,-3.7008,-3.7019,-3.7017,-3.6978,-3.7039,-3.706,-3.7225,-3.7341,-3.7116,-3.7127,-3.7661,-3.7673,-3.7685,-3.7867,0,0,0,0,0,0,-3.6737,-3.6757,-3.6994,-3.7001,-3.6806,-3.6887,-3.6898,-3.6961,-3.701,-3.7011,-3.6934,-3.6921,-3.7044,-3.7059,-3.7076,-3.7339,-3.71,-3.7111,-3.7118,-3.767,-3.768,-3.7689,0,0,0,0,0,0,-3.6741,-3.6763,-3.6998,-3.6911,-3.6908,-3.6875,-3.6885,-3.702,-3.7012,-3.6922,-3.6913,-3.6928,-3.7019,-3.706,-3.7073,-3.7285,-3.7088,-3.7098,-3.7105,-3.711,-3.7678,-3.7686,0,0,0,0,0,0,-3.675,-3.6769,-3.6909,-3.6907,-3.6903,-3.6977,-3.6993,-3.7137,-3.6937,-3.6922,-3.6918,-3.691,-3.7022,-3.7034,-3.7071,-3.7278,-3.7283,-3.7088,-3.7095,-3.71,-3.7104,0,0,0,0,0,0,0,-3.6757,-3.6636,-3.6954,-3.6903,-3.6899,-3.7064,-3.7066,-3.7068,-3.6935,-3.6928,-3.692,-3.6913,-3.7029,-3.704,-3.7052,-3.7273,0,0,-3.7087,-3.7092,0,0,0,0,0,0,0,0,-3.6627,-3.6634,-3.6954,-3.6955,-3.6957,-3.7065,-3.7066,-3.7068,-3.6934,-3.6928,-3.6922,-3.6916,-3.7032,-3.7041,-3.7051,0,0,0,0,0,0,0,0,0,0,0,0,0,0,0,-3.6954,-3.6955,0,-3.7065,-3.7066,-3.7067,-3.6933,-3.6928,-3.6923,-3.6918,-3.7035,-3.7042,-3.705,0,0,0,0,0,0,0,0,0,0,0,0,0,0,0,0,0,0,0,0,0,0,0,0,0,0,0,0,0,0,0,0,0,0,0,0,0,0,0,0,0,0,0,0,0,0,0,0,0,0,0,0,0,0,0,0,0,0,0,0,0,0,0,0,0,0,0,0,0]}],[{"header":{"parameterUnit":"kt","parameterCategory":2,"dx":1,"dy":1,"la1":30.253999710083008,"la2":30.299108505249023,"lo1":-89.0895004272461,"lo2":-89.04439544677734,"nx":28,"ny":28,"refTime":"2022-09-27T15:00:00:Z","depth":0,"parameterNumber":2,"parameterNumberName":"V-component_of_WINDS"},"data":[-12.7835,-12.8034,-12.8018,-12.8235,-12.8255,-12.8399,-12.8444,-12.8499,-12.8538,-12.8703,-12.8794,-12.8792,-12.8819,-12.892,-12.9014,-12.901,-12.9051,-12.9135,-12.9115,-12.8761,-12.8711,-12.8662,-12.8615,-12.9144,-12.9145,-12.9485,-12.9489,-12.9491,-12.7575,-12.7599,-12.771,-12.7805,-12.7898,-12.7807,-12.7872,-12.7955,-12.8085,-12.8133,-12.8222,-12.8364,-12.8472,-12.847,-12.857,-12.8657,-12.8618,-12.8685,-12.8678,-12.8684,-12.8304,-12.8255,-12.8716,-12.8716,-12.8715,-12.8715,-12.8715,-12.8715,-12.7097,-12.7218,-12.7266,-12.7385,-12.7427,-12.7489,-12.7599,-12.7596,-12.77,-12.7806,-12.7761,-12.7905,-12.7947,-12.8055,-12.8086,-12.8194,-12.8115,-12.8181,-12.8198,-12.8216,-12.8239,-12.775,-12.821,-12.8208,-12.8207,-12.8206,-12.8205,0,-12.6742,-12.6719,-12.6824,-12.6924,-12.7009,-12.7084,-12.7148,-12.7215,-12.7154,-12.7243,-12.7368,-12.7437,-12.7569,-12.7682,-12.777,-12.7787,-12.7697,-12.7685,-12.773,-12.7756,-12.7767,-12.7763,-12.7145,-12.7672,-12.7667,-12.7664,-12.7661,-12.7659,-12.6258,-12.6401,-12.6441,-12.6517,-12.6548,-12.6671,-12.6739,-12.6675,-12.675,-12.6816,-12.6923,-12.7036,-12.7124,-12.7324,-12.7313,-12.7411,-12.7368,-12.7571,-12.7382,-12.74,-12.737,-12.7363,-12.7376,-12.761,-12.7616,-12.7621,-12.7625,0,-12.5987,-12.5957,-12.6171,-12.6196,-12.6206,-12.6357,-12.6375,-12.6491,-12.6474,-12.6629,-12.6661,-12.6634,-12.6756,-12.6712,-12.6842,-12.6814,-12.7057,-12.7012,-12.7042,-12.703,-12.7208,-12.7192,-12.7792,-12.7867,-12.7318,-12.7323,-12.7328,0,-12.5562,-12.5751,-12.5694,-12.5821,-12.6027,-12.5959,-12.6164,-12.617,-12.6207,-12.6328,-12.6221,-12.6336,-12.6262,-12.6371,-12.6331,-12.6521,-12.6545,-12.6535,-12.6522,-12.6546,-12.6547,-12.6582,-12.6557,-12.6488,-12.6485,-12.6482,-12.648,0,-12.5141,-12.5332,-12.5537,-12.5575,-12.5619,-12.5716,-12.5738,-12.5778,-12.5845,-12.5923,-12.5965,-12.6061,-12.6113,-12.6187,-12.6136,-12.6009,-12.6367,-12.6182,-12.6357,-12.6359,-12.6439,-12.6435,-12.6977,-12.6476,-12.6475,-12.6474,-12.6473,0,-12.4793,-12.4879,-12.5181,-12.5214,-12.5267,-12.5401,-12.5492,-12.5597,-12.5646,-12.5631,-12.5692,-12.5614,-12.5778,-12.5597,-12.5819,-12.5669,-12.5725,-12.573,-12.5742,-12.5754,-12.5553,-12.5865,-12.6387,-12.6439,-12.5764,-12.5759,-12.5753,0,-12.4319,-12.4616,-12.4561,-12.4848,-12.4978,-12.485,-12.4996,-12.5044,-12.5036,-12.5142,-12.513,-12.5252,-12.5108,-12.5139,-12.5255,-12.5248,-12.5444,-12.522,-12.5369,-12.5376,-12.5361,-12.5841,-12.593,-12.6277,-12.5677,-12.5685,-12.5691,0,-12.3948,-12.4003,-12.4059,-12.4099,-12.4154,-12.4262,-12.4431,-12.4538,-12.4612,-12.4677,-12.4815,-12.4984,-12.4882,-12.4936,-12.4882,-12.5005,-12.5309,-12.4878,-12.4878,-12.4957,-12.5635,-12.5719,-12.5778,-12.5245,-12.5254,-12.5261,-12.563,0,-12.3428,-12.3573,-12.3721,-12.3816,-12.3893,-12.407,-12.4027,-12.4113,-12.4055,-12.4042,-12.4243,-12.427,-12.4376,-12.4431,-12.4374,-12.4671,-12.4614,-12.4504,-12.4325,-12.464,-12.476,-12.4809,-12.4149,-12.4143,-12.4139,-12.4135,0,0,-12.2982,-12.3189,-12.3123,-12.3286,-12.3347,-12.3211,-12.3404,-12.3447,-12.3537,-12.358,-12.348,-12.3723,-12.3749,-12.3998,-12.4093,-12.4136,-12.4184,-12.4076,-12.449,-12.453,-12.4567,-12.4696,-12.4748,-12.4126,-12.4125,-12.4123,-12.4122,0,-12.2784,-12.282,-12.3014,-12.3056,-12.3116,-12.3094,-12.314,-12.3174,-12.3175,-12.3374,-12.3256,-12.3371,-12.3568,-12.361,-12.3658,-12.4045,-12.3949,-12.408,-12.4304,-12.4445,-12.4491,-12.4531,-12.4668,-12.4719,-12.411,-12.4111,-12.4111,0,-12.241,-12.2438,-12.2528,-12.2662,-12.27,-12.2837,-12.2639,-12.2793,-12.2893,-12.2733,-12.2932,-12.2941,-12.2993,-12.3235,-12.3342,-12.3253,-12.3737,-12.3576,-12.3605,-12.3615,-12.3748,-12.3804,-12.3853,-12.3202,-12.3199,-12.3197,0,0,-12.2244,-12.2379,-12.2388,-12.2616,-12.2648,-12.2618,-12.2687,-12.2636,-12.2689,-12.2711,-12.272,-12.2773,-12.2886,-12.2962,-12.3066,-12.3338,-12.3342,-12.3467,-12.3509,-12.3545,-12.3575,-12.3717,-12.3772,-12.3186,-12.3185,-12.3185,0,0,-12.2164,-12.2185,-12.2118,-12.2378,-12.2435,-12.2456,-12.2596,-12.2513,-12.2603,-12.2577,-12.2496,-12.2506,-12.2731,-12.2744,-12.26,-12.3,-12.2824,-12.2857,-12.2984,-12.3038,-12.308,-12.3072,-12.2398,0,0,0,0,0,-12.194,-12.2182,-12.2121,-12.2159,-12.2327,-12.249,-12.2511,-12.2451,-12.2327,-12.2439,-12.2433,-12.2326,-12.2649,-12.2519,-12.2556,-12.2718,-12.3041,-12.3067,-12.3091,-12.3318,-12.3375,-12.3422,0,0,0,0,0,0,-12.1954,-12.2,-12.2114,-12.2148,-12.2184,-12.2481,-12.2258,-12.2248,-12.2314,-12.2291,-12.2331,-12.2327,-12.2277,-12.2496,-12.253,-12.2685,-12.2387,-12.3051,-12.3073,-12.3093,-12.3338,-12.3384,-12.3423,0,0,0,0,0,-12.1965,-12.2002,-12.2289,-12.2143,-12.2176,-12.2154,-12.2248,-12.2238,-12.2288,-12.228,-12.2273,-12.2237,-12.2283,-12.2307,-12.2516,-12.2671,-12.2363,-12.2376,-12.3065,-12.3083,-12.3098,-12.336,0,0,0,0,0,0,-12.1973,-12.1993,-12.2294,-12.2301,-12.2048,-12.2136,-12.2148,-12.2231,-12.2271,-12.2267,-12.2181,-12.2162,-12.2291,-12.2308,-12.2327,-12.267,-12.2343,-12.2357,-12.2365,-12.3078,-12.3092,-12.3104,0,0,0,0,0,0,-12.1972,-12.2,-12.2298,-12.2181,-12.2174,-12.212,-12.2131,-12.2299,-12.2273,-12.2169,-12.2155,-12.2172,-12.226,-12.231,-12.2324,-12.2588,-12.2329,-12.2341,-12.235,-12.2355,-12.3089,-12.31,0,0,0,0,0,0,-12.1983,-12.2007,-12.2178,-12.2174,-12.2167,-12.2246,-12.2267,-12.2442,-12.2177,-12.2169,-12.2151,-12.2139,-12.2266,-12.2278,-12.2323,-12.2582,-12.2587,-12.2329,-12.2337,-12.2344,-12.2348,0,0,0,0,0,0,0,-12.1991,-12.1847,-12.225,-12.2168,-12.2161,-12.237,-12.2372,-12.2374,-12.2174,-12.2164,-12.2154,-12.2144,-12.2257,-12.2271,-12.2285,-12.2577,0,0,-12.2328,-12.2334,0,0,0,0,0,0,0,0,-12.1835,-12.1844,-12.2251,-12.2252,-12.2254,-12.237,-12.2372,-12.2374,-12.2172,-12.2164,-12.2156,-12.2148,-12.2261,-12.2272,-12.2283,0,0,0,0,0,0,0,0,0,0,0,0,0,0,0,-12.2251,-12.2252,0,-12.2371,-12.2372,-12.2373,-12.2171,-12.2164,-12.2158,-12.2151,-12.2264,-12.2273,-12.2282,0,0,0,0,0,0,0,0,0,0,0,0,0,0,0,0,0,0,0,0,0,0,0,0,0,0,0,0,0,0,0,0,0,0,0,0,0,0,0,0,0,0,0,0,0,0,0,0,0,0,0,0,0,0,0,0,0,0,0,0,0,0,0,0,0,0,0,0,0]}]]]